Regional Weather Roundup
Issued by NWS

Home | Current Version | Previous Version | Text Only | Print | Product List | Glossary On
Versions: 1 2 3 4 5 6 7 8 9 10 11 12 13 14 15 16 17 18 19 20 21 22 23 24 25 26 27 28 29 30 31 32 33 34 35 36 37 38 39 40 41 42 43 44 45 46 47 48 49 50
000
ASUS46 KSEW 302210
RWRWA

WASHINGTON REGIONAL WEATHER ROUNDUP
NATIONAL WEATHER SERVICE SEATTLE WA
300 PM PDT TUE JUN 30 2015

NOTE:"FAIR" INDICATES FEW OR NO CLOUDS BELOW 12,000 FEET WITH NO
SIGNIFICANT WEATHER AND/OR OBSTRUCTIONS TO VISIBILITY.

WAZ505-507>509-302300-
SEATTLE, TACOMA, EVERETT, AND VICINITY

CITY           SKY/WX    TMP DP  RH WIND       PRES   REMARKS
EVERETT        SUNNY     79  59  50 NW8       30.10F
BOEING FIELD   SUNNY     83  58  42 NW6       30.06F
RENTON         SUNNY     83  61  47 N6        30.06F
SEATAC AIRPORT MOSUNNY   82  60  47 W7        30.09F
JBLM-MCCHORD   SUNNY     82  62  49 NW7       30.08S
PUYALLUP       FAIR      86  61  42 VRB5      30.08F
BREMERTON      SUNNY     86  63  45 SW6       30.09F
JBLM-FT LEWIS  SUNNY     82  62  50 VRB7      30.07F
TACOMA NARROWS MOSUNNY   80  59  48 W8        30.08F
$$

WAZ001-503-506-510-514-515-302300-
NORTH INTERIOR

CITY           SKY/WX    TMP DP  RH WIND       PRES   REMARKS
BELLINGHAM     SUNNY     76  57  51 S8        30.08S
FRIDAY HARBOR  SUNNY     72  57  59 VRB6      30.10F
EASTSOUND      SUNNY     72  57  60 N5        30.07F
PORT ANGELES   SUNNY     70  56  61 NW7       30.10F
PORT TOWNSEND  FAIR      79  57  47 NW8       30.08F
NAS WHIDBEY    MOSUNNY   65  55  70 NW7       30.14S
ARLINGTON      SUNNY     82  55  39 NW9       30.08F
BURLINGTON     SUNNY     79  59  50 SW6G12    30.08F
$$

WAZ020-022-039-040-504-511-512-302300-
SOUTHWEST INTERIOR

CITY           SKY/WX    TMP DP  RH WIND       PRES   REMARKS
SHELTON        SUNNY     82  61  48 SW9       30.06F
OLYMPIA        SUNNY     84  61  45 N8        30.07F
CHEHALIS       FAIR      86  61  42 CALM      30.07F
KELSO          SUNNY     84  63  48 W12       30.07F
VANCOUVER      SUNNY     88  59  37 W15       30.01F
SCAPPOOSE, OR  SUNNY     89  58  34 N15       30.01F
PORTLAND, OR   MOSUNNY   88  61  40 W14       30.01
$$

WAZ021-516-517-302300-
WASHINGTON COAST

CITY           SKY/WX    TMP DP  RH WIND       PRES   REMARKS
FORKS          SUNNY     69  60  73 SW10      30.13F
HOQUIAM        SUNNY     65  58  78 SW21      30.13F
ASTORIA, OR    SUNNY     70  59  68 NW14      30.12S
$$

WAZ019-023-024-040-518-519-302300-
CASCADE MOUNTAINS AND COLUMBIA GORGE

CITY           SKY/WX    TMP DP  RH WIND       PRES   REMARKS
TROUTDALE, OR  SUNNY     87  59  38 SW10      30.00F
THE DALLES, OR SUNNY     97  56  25 NW15      29.90F HX  95
$$

WAZ026-027-041>044-520-521-302300-
EAST SLOPES

CITY           SKY/WX    TMP DP  RH WIND       PRES   REMARKS
OMAK           SUNNY     94  48  20 VRB3      29.94F HX  90
WENATCHEE      SUNNY     97  48  18 VRB6      29.93F HX  93
ELLENSBURG     SUNNY     96  51  21 NW21G28   29.98F HX  93
YAKIMA         SUNNY     99  51  19 VRB7      29.94F HX  96
$$

WAZ028-034-035-302300-
COLUMBIA BASIN

CITY           SKY/WX    TMP DP  RH WIND       PRES   REMARKS
EPHRATA        SUNNY     96  52  22 CALM      29.94F HX  93
MOSES LAKE     SUNNY     95  51  22 MISG      29.95F HX  92
PASCO          SUNNY     99  54  22 VRB5      29.90F HX  97
HERMISTON, OR  SUNNY     98  52  21 VRB3      29.92F HX  95
$$

WAZ036>038-302300-
NORTHEAST WASHINGTON

CITY           SKY/WX    TMP DP  RH WIND       PRES   REMARKS
SPOKANE GEIGER MOSUNNY   92  44  19 W14G21    30.00F
SPOKANE FELTS  MOSUNNY   94  48  20 W15       29.98F HX  90
FAIRCHILD AFB  SUNNY     91  46  20 W12G17    30.01F
COEURDALENE,ID SUNNY     91  50  24 SW10      29.99F
DEER PARK      SUNNY     91  47  21 VRB6      30.01F
$$

WAZ029>033-302300-
SOUTHEAST WASHINGTON

CITY           SKY/WX    TMP DP  RH WIND       PRES   REMARKS
PULLMAN        SUNNY     90  50  25 W7        30.04F
LEWISTON, ID   SUNNY     98  49  18 CALM      29.94F HX  95
WALLA WALLA    SUNNY     98  52  21 NW12      29.95F HX  95
PENDLETON, OR  SUNNY     96  50  20 W7        29.96F HX  93
$$


USA.gov is the U.S. government's official web portal to all federal, state and local government web resources and services.